Home   Weather   Munich   Past weeks

Flag for Germany Past Weather in Munich, Bavaria, Germany — Yesterday and Last 2 Weeks

52 °F

Passing clouds.

Feels Like: 49 °F
Forecast: 37 / 54 °F
Wind: 7 mph from North

Location: Oberpfaffenhofen

Current Time: Oct 26, 2016 at 7:09:38 PM

Latest Report: Oct 26, 2016 at 6:20 PM

Visibility: N/A

Pressure: 30.33 "Hg (28.47 "Hg at 526m altitude)

Humidity: 88%

Dew Point: 48 °F

Location of MunichLocation

Past Weather in Munich — Graph


Munich Temperature Yesterday

Maximum temperature yesterday: 59 °F (at 12:50 PM)
Minimum temperature yesterday: 54 °F (at 6:50 AM)
Average temperature yesterday: 55 °F

High & Low Weather Summary for the Past Weeks

High66 °F (Oct 24, 3:20 PM)100% (Oct 12, 6:50 AM)30.33 "Hg (Oct 12, 6:50 AM)
Low34 °F (Oct 13, 6:50 AM)56% (Oct 24, 12:20 PM)29.71 "Hg (Oct 14, 4:20 PM)
Average49 °F86%30.05 "Hg
* Reported Oct 11 5:20 PM — Oct 26 5:50 PM, Munich, Weather by CustomWeather, © 2016

Note: Actual official high and low records may vary slightly from our data, if they occured in-between our weather recording intervals... More about our weather records


Munich Weather History for the Previous 24 Hours

Scroll right to see more
Time TempWeatherWind HumidityBarometerVisibility
5:50 PM
Wed, Oct 26
52 °FPartly sunny.6 mph88%30.33 "HgN/A
5:20 PM52 °FPartly sunny.6 mph88%30.33 "HgN/A
4:50 PM52 °FBroken clouds.7 mph88%30.33 "HgN/A
4:20 PM54 °FBroken clouds.8 mph82%30.33 "HgN/A
3:50 PM54 °FBroken clouds.6 mph88%30.33 "HgN/A
3:20 PM54 °FBroken clouds.6 mph88%30.30 "HgN/A
2:50 PM52 °FBroken clouds.6 mph94%30.33 "Hg6 mi
2:20 PM52 °FBroken clouds.5 mph94%30.33 "Hg6 mi
1:50 PM52 °FBroken clouds.3 mph94%30.33 "HgN/A
1:20 PM52 °FMostly cloudy.6 mph94%30.33 "Hg4 mi
12:50 PM50 °FFog.5 mph100%30.33 "Hg3 mi
12:20 PM50 °FFog.7 mph100%30.33 "Hg3 mi
11:50 AM50 °FFog.6 mph100%30.33 "Hg2 mi
11:20 AM50 °FFog.5 mph100%30.33 "Hg2 mi
10:50 AM50 °FFog.3 mph94%30.33 "Hg1 mi
10:20 AM48 °FFog.6 mph100%30.33 "Hg1 mi
9:50 AM48 °FLight rain. Fog.6 mph100%30.33 "Hg1 mi
9:20 AM48 °FLight rain. Fog.8 mph100%30.30 "Hg1 mi
8:50 AM50 °FFog.7 mph94%30.30 "Hg1 mi
8:20 AM50 °FFog.6 mph94%30.30 "Hg2 mi
7:50 AM50 °FFog.3 mph94%30.30 "Hg3 mi
7:20 AM50 °FFog.No wind94%30.30 "Hg3 mi
6:50 AM50 °FFog.2 mph94%30.30 "Hg3 mi
Weather by CustomWeather, © 2016

See weather overviewHow to use our weather pages